SRMSAT

Last updated on Sun Aug 09 2026 00:02:46 GMT+0000 (Coordinated Universal Time)

1 37841U 11058D 26220.40848197 .00000326 00000+0 32973-4 0 9999 2 37841 19.9717 103.3789 0011746 59.1088 98.7172 14.11585495765207
UTC large
Height (km)
Speed (km/s)
/
Latitude / Longitude
Inclination (degrees)
Orbital Period (minutes)
Azimuth
Elevation
Range (km)
Doppler Factor

Next 0 passes for location: London (51.5072 / 0.1276)

No passes found over London.
SRMSAT